Location: Songkhla
(7.2000°N, 100.6000°E)
Time: 12:39:20
(UTC+07:00)

First-Move - Pass Details

Date: 31 July 2021
Orbit: 576 x 665 km, 97.6° (Epoch: 23 September)

Event Time Altitude Azimuth Distance (km) Brightness Sun altitude
Rises 04:45:02 0° 9° (N) 2,957 ? -20.8°
Reaches altitude 10° 04:47:13 10° 9° (N) 2,058 ? -20.3°
Maximum altitude 04:51:44 82° 281° (W) 671 ? -19.3°
Enters shadow 04:54:45 21° 196° (SSW) 1,469 ? -18.6°
